This is the latest recevied weather packets stored in our database for station/object IR9AK-10. If no packets are shown the sender has not sent any weather packets the latest 10 day(s).
| Time | Temp. | Humidity | Pressure | Rain* | Wind** | Luminosity | Snow |
|---|---|---|---|---|---|---|---|
| 1788541511 | 41.11° C | 35% | 1062.3 hPa | - | - | - | - |
| 1788540912 | 41.67° C | 35% | 1062.3 hPa | - | - | - | - |
| 1788540313 | 41.67° C | 35% | 1062.2 hPa | - | - | - | - |
| 1788539714 | 41.11° C | 36% | 1062.1 hPa | - | - | - | - |
| 1788539179 | 41.67° C | 36% | 1062.1 hPa | - | - | - | - |
| 1788539114 | 41.67° C | 36% | 1062.1 hPa | - | - | - | - |
| 1788538547 | 41.67° C | 36% | 1062 hPa | - | - | - | - |
| 1788538514 | 41.67° C | 36% | 1062 hPa | - | - | - | - |
| 1788537914 | 41.67° C | 36% | 1061.9 hPa | - | - | - | - |
| 1788537314 | 41.67° C | 35% | 1062 hPa | - | - | - | - |
| 1788536745 | 41.67° C | 35% | 1062 hPa | - | - | - | - |
| 1788536115 | 41.67° C | 35% | 1062 hPa | - | - | - | - |
| 1788535515 | 41.67° C | 35% | 1062 hPa | - | - | - | - |
| 1788534915 | 42.22° C | 34% | 1062 hPa | - | - | - | - |
| 1788534315 | 45.56° C | 30% | 1061.9 hPa | - | - | - | - |
| 1788533716 | 45° C | 30% | 1061.9 hPa | - | - | - | - |
| 1788533118 | 45.56° C | 30% | 1061.8 hPa | - | - | - | - |
| 1788532519 | 47.78° C | 27% | 1061.8 hPa | - | - | - | - |
| 1788531920 | 42.78° C | 34% | 1061.9 hPa | - | - | - | - |
| 1788531321 | 42.22° C | 34% | 1061.9 hPa | - | - | - | - |
| 1788530722 | 41.67° C | 35% | 1062 hPa | - | - | - | - |
| 1788530123 | 41.67° C | 35% | 1061.8 hPa | - | - | - | - |
| 1788529523 | 41.67° C | 36% | 1062 hPa | - | - | - | - |
| 1788528924 | 41.67° C | 35% | 1062 hPa | - | - | - | - |
| 1788528326 | 41.67° C | 36% | 1062.1 hPa | - | - | - | - |
* Rain since midnight (hover to see other rain measurements)
** Current wind speed in m/s (hover to see current wind gust speed)